Location: Arlington Heights
(34.0422°N, 118.3189°W)
Time: 01:18:07
(UTC+00:00)

COSMOS 2428 - Pass Details

Date: 26 June 2022
Orbit: 844 x 857 km, 71.0° (Epoch: 08 August)

Event Time Altitude Azimuth Distance (km) Brightness Sun altitude
Rises 12:09:49 0° 326° (NW) 3,423 5.9 -6.8°
Reaches altitude 10° 12:12:33 10° 316° (NW) 2,485 5.0 -6.3°
Maximum altitude 12:17:24 29° 257° (WSW) 1,503 3.5 -5.5°
Drops below altitude 10° 12:22:15 10° 199° (SSW) 2,478 4.7 -4.7°
Sets 12:24:59 0° 188° (S) 3,411 5.5 -4.2°
